STARLINK-32113 (60282 NORAD) Tracking and Keplerian Element Data

This shows tracking and keplerian element data for the satellite.

Feedback or suggestion? Click here.




ElementValue
Catalog60282
NameSTARLINK-32113
Epoch Orbit1297
Epoch Day286.39082194
Epoch Year2024
RAAN276.542
Inclination53.1585
Eccentricity0.0001418
Argument of Perigee106.6821
Mean Anonmoly253.4336
Mean Motion15.30197714
Decay Rate0.0002861
L11 60282U 24132E 24286.39082194 .00028610 00000+0 97442-3 0 9993
L22 60282 53.1585 276.5420 0001418 106.6821 253.4336 15.30197714 12974



Live tracking and technical data element details for STARLINK-32113 (NORAD 60282). STARLINK-32113 can be tracked NOW for your location showing map with azimuth and elevation plus other details from your city location.







IsCatalogInMostPopularTable: catalog: 60282, numindb: 10
Update: records affected: 1



GetName: 60282 STARLINK-32113

Hit Count: updated at: Thu, 23 Jan 2025 14:54:41 GMT